Regional Weather Roundup
Issued by NWS Charleston, SC

Current Version | Previous Version | Graphics & Text | Print | Product List | Glossary On
Versions: 1 2 3 4 5 6 7 8 9 10 11 12 13 14 15 16 17 18 19 20 21 22 23 24 25 26 27 28 29 30 31 32 33 34 35 36 37 38 39 40 41 42 43 44 45 46 47 48 49 50
000
ASUS42 KCHS 100827
RWRCHS

REGIONAL WEATHER ROUNDUP
NATIONAL WEATHER SERVICE CHARLESTON SC
300 AM EST WED FEB 10 2016

NOTE: "FAIR" INDICATES FEW OR NO CLOUDS BELOW 12,000 FEET WITH NO
SIGNIFICANT WEATHER AND/OR OBSTRUCTIONS TO VISIBILITY.

NOT ALL STATIONS ARE QUALITY CONTROLLED BY THE NATIONAL
WEATHER SERVICE. USE DATA WITH CAUTION...ESPECIALLY
DEWPOINT OBSERVATIONS.

SCZ027-030-031-034>040-042>050-100900-
...SOUTHEAST SOUTH CAROLINA...

CITY           SKY/WX    TMP DP  RH WIND       PRES   REMARKS
N CHARLESTON   CLEAR     33  17  51 W12G21    29.97S WCI  24
WATERFRONT PRK   N/A     35  20  54 W7        29.81F WCI  29
MOUNT PLEASANT FAIR      34  19  55 W10       29.97S WCI  26
JOHNS ISLAND   FAIR      34  18  51 W12G20    29.99R WCI  25
PINOPOLIS        N/A     34  23  64 W15       29.86F WCI  24
MONCKS CORNER  FAIR      28  16  59 W3        29.96S
SUMMERVILLE    FAIR      32  21  64 SW7       29.99R WCI  26
BEAUFORT MCAS  CLEAR     32  20  61 W9        30.02R WCI  24
BEAUFORT ARPT  FAIR      34  21  60 W14       30.02R WCI  24
HILTON HEAD IS CLEAR     34  21  60 SW8G16    30.05R WCI  27
WALTERBORO     SUNNY     34  21  60 W10       30.00R WCI  26
ALLENDALE      FAIR      30  19  64 CALM      30.00R

...SOUTHERN MIDLANDS AND PEE DEE...

CITY           SKY/WX    TMP DP  RH WIND       PRES   REMARKS
GEORGETOWN     NOT AVBL
KINGSTREE      NOT AVBL
ORANGEBURG     PTCLDY    30  16  56 W8        29.96R WCI  22
BARNWELL       FAIR      32  19  59 W8        29.99R WCI  25
AIKEN          FAIR      28  14  54 W14G20    29.98R WCI  17
MANNING        FAIR      32  10  40 SW9       29.95S WCI  24
COLUMBIA       CLEAR     30  15  53 W12       29.94R WCI  20
SUMTER         CLEAR     29  19  66 W8        29.90S WCI  21
FLORENCE       CLOUDY    34  24  67 W6        29.90S WCI  29
MYRTLE BEACH   CLEAR     34  18  51 W10       29.94R WCI  26
N MYRTLE BEACH PTCLDY    34  24  67 W6        29.90S WCI  29

$$

GAZ063-065-086>088-099>101-113>116-118-119-134>141-150-100900-
...SOUTHEAST GEORGIA...

CITY           SKY/WX    TMP DP  RH WIND       PRES   REMARKS
SAVANNAH ARPT  PTCLDY    30  21  69 W6        30.05R WCI  24
HUNTER AAF     PTCLDY    28  21  74 W5        30.02S WCI  23
FORT STEWART   CLEAR     29  22  75 SW2       30.03F
STATESBORO     PTCLDY    34  20  56 W6        30.03S WCI  28
SYLVANIA       MOSUNNY   32  24  72 W8        30.03S WCI  25
CLAXTON        FAIR      32  26  77 SW5       30.05S WCI  27

...CSRA...CENTRAL AND FAR SOUTHEAST GEORGIA...

CITY           SKY/WX    TMP DP  RH WIND       PRES   REMARKS
THOMSON        CLEAR     30  20  66 W7G17     30.04R WCI  23
AUGUSTA-BUSH   CLEAR     29  17  61 W8        30.00R WCI  21
AUGUSTA-DANIEL PTCLDY    30  15  53 W8        29.98S WCI  22
SWAINSBORO     FAIR      30  23  74 W7        30.04S WCI  23
VIDALIA        CLEAR     32  23  69 W6        30.05S WCI  26
EASTMAN        FAIR      31  23  73 W6        30.09S WCI  25
HAZLEHURST     FAIR      31  26  81 CALM      30.05F
ALMA           CLEAR     31  24  75 NW5       30.07S WCI  26
WAYCROSS       PTCLDY    32  29  88 SW5       30.06F WCI  27
JESUP          FAIR      32  30  93 CALM      30.07R
BAXLEY         FAIR      32  28  86 W3        30.06F
BRUNSWICK      CLEAR     32  28  86 W5        30.07F WCI  27
SAINT SIMONS   CLEAR     35  26  69 W7        30.07S WCI  29

$$

SCZ027-028-034-036>038-045-046-048>050-GAZ119-141-100900-
...LAKE AND SUPPLEMENTAL COASTAL OBSERVATIONS...

STATION/POSITION TIME  TEMP    WIND        PRES    WAVE   SWELL
                       AIR SEA DIR/SP/G            HT/PER HT/PER/DIR
                 (UTC) (F)     (DEG/KT/KT) (MB)    (FT/S) (FT/S/D)
WINYAH BAY       0745   34     270/  9     1012.0S
LAKE MURRAY      0700   32     260/ 15/ 20 1012.5S
ACE BASIN NERRS  0745   33     260/  5     1015.0S
FORT PULASKI     0800   34 51  250/  7/ 11 1017.4S
SAPELO ISLAND    0800   37     260/  7     1018.0S

$$

ANZ835-935-AMZ111-154-330-350-352-354-370-450-454-472-100900-
...C-MAN AND BUOY OBSERVATIONS...

STATION/POSITION TIME  TEMP    WIND        PRES    WAVE   SWELL
                       AIR SEA DIR/SP/G            HT/PER HT/PER/DIR
                 (UTC) (F)     (DEG/KT/KT) (MB)    (FT/S) (FT/S/D)
BUOY 41004       0750   42 64  280/ 29/ 35 1013.6S   8/ 6
BUOY 41008       0750   41 54  300/ 19/ 25 1017.7S   3/ 4
FOLLY BEACH CMAN 0800   33     260/  9/ 14 1015.3S
CAPERS NEARSHORE 0708   38     270/ 21/ 29 1014.2R
FRIPP NEARSHORE  0700   39     280/ 19/ 23 1015.9R


STATION/POSITION TIME  TEMP    WIND        PRES    WAVE   SWELL
                       AIR SEA DIR/SP/G            HT/PER HT/PER/DIR
                 (UTC) (F)     (DEG/KT/KT) (MB)    (FT/S) (FT/S/D)
5E ST. MARYS GA  0751      56                N/A     3/14   2/ 80/14
FRYING PAN BUOY  0800   43 57  280/ 23/ 29 1011.5S
BUOY 41025       0750   45 73  290/ 23/ 31 1007.6F   9/15   5/ 90/15
CAPE LOOKOUT NC  NOT AVBL
BUOY 41002       0750   53 68  290/ 23/ 27   N/A    16/11  13/270/11
BUOY 41010       0720   59 72              1015.7R
ST AUGUSTINE FL  0800   40 56  270/  4/  6 1020.3R


$$



USA.gov is the U.S. government's official web portal to all federal, state and local government web resources and services.